Stations météo

réclame
Mon MeteoGroup
Bologna/Borgo Panigale, Italie (16140): Température de l'air & dewpoint: 08.08.2018 23:00:00 - 14.08.2018 23:00:00 (CEST)Bologna/Borgo Panigale, Italie (16140): Vitesse du vent: 08.08.2018 23:00:00 - 14.08.2018 23:00:00 (CEST)Bologna/Borgo Panigale, Italie (16140): Direction du vent: 08.08.2018 23:00:00 - 14.08.2018 23:00:00 (CEST)Bologna/Borgo Panigale, Italie (16140): reduced air pressure: 08.08.2018 23:00:00 - 14.08.2018 23:00:00 (CEST)Bologna/Borgo Panigale, Italie (16140): visibility: 08.08.2018 23:00:00 - 14.08.2018 23:00:00 (CEST)
Date & Time tt [°C] td [°C] ff [km/h] ff [knt] dd ppp [hPa] vv [km]
14.08.2018 23:00:00 20,4 18,9 4 2 - 1014,0 10
14.08.2018 22:00:00 21,0 18,0 0 0 N - 10
14.08.2018 21:00:00 21,0 18,0 5 3 SW - 10
14.08.2018 20:00:00 21,5 18,2 4 2 - 1012,0 10
14.08.2018 19:00:00 21,0 19,0 9 5 SW - 10
14.08.2018 18:00:00 20,0 18,0 15 8 S - 10
14.08.2018 17:00:00 20,4 18,9 8 4 W 1013,0 10
14.08.2018 16:00:00 26,0 18,0 16 9 NW - 10
14.08.2018 15:00:00 28,0 20,0 15 8 NNE - 10
14.08.2018 14:00:00 27,3 19,6 16 9 NNE 1011,0 10
14.08.2018 13:00:00 27,0 19,0 9 5 N - 10
14.08.2018 12:00:00 26,0 19,0 9 5 N - 10
14.08.2018 11:00:00 25,3 18,9 8 4 N 1011,0 10
14.08.2018 10:00:00 24,0 19,0 8 4 W - 10
14.08.2018 09:00:00 22,0 19,0 2 1 - - 10
14.08.2018 08:00:00 21,2 18,7 5 3 SSW 1011,0 10
14.08.2018 07:00:00 20,0 18,0 4 2 - - 10
14.08.2018 06:00:00 20,0 18,0 5 3 SSW - 10
14.08.2018 05:00:00 20,4 17,6 4 2 E 1010,0 40
14.08.2018 04:00:00 20,0 18,0 5 3 E - 10
14.08.2018 03:00:00 21,0 18,0 5 3 - - 10
14.08.2018 02:00:00 21,9 17,5 2 1 - 1010,0 10
14.08.2018 01:00:00 22,0 18,0 8 4 SSW - 10
14.08.2018 00:00:00 23,0 19,0 8 4 SW - 10
13.08.2018 23:00:00 22,3 18,5 4 2 - 1011,0 10
13.08.2018 22:00:00 22,0 19,0 8 4 WNW - 10
13.08.2018 21:00:00 25,0 18,0 15 8 NW - 10
13.08.2018 20:00:00 22,3 18,7 11 6 WSW 1011,0 10
13.08.2018 19:00:00 30,0 16,0 13 7 SW - 10
13.08.2018 18:00:00 27,0 18,0 9 5 N - 10
13.08.2018 17:00:00 31,0 17,0 21 11 SSW - 10
13.08.2018 16:00:00 32,0 17,0 9 5 ESE - 10
13.08.2018 15:00:00 32,0 16,0 8 4 NE - 10
13.08.2018 14:00:00 31,5 17,5 8 4 - 1011,0 10
13.08.2018 13:00:00 30,0 19,0 9 5 N - 10
13.08.2018 12:00:00 28,0 19,0 9 5 NW - 10
13.08.2018 11:00:00 28,0 18,0 5 3 N 1013,0 10
13.08.2018 10:00:00 26,0 16,0 11 6 WNW - 10
13.08.2018 09:00:00 24,0 17,0 8 4 WNW - 10
13.08.2018 08:00:00 22,2 15,1 9 5 SSW 1013,0 10
13.08.2018 07:00:00 20,0 15,0 9 5 SW - 10
13.08.2018 06:00:00 20,0 16,0 11 6 SW - 10
13.08.2018 05:00:00 20,0 16,4 11 6 SSW 1013,0 10
13.08.2018 04:00:00 20,0 18,0 9 5 SSW - 10
13.08.2018 03:00:00 21,0 19,0 8 4 SW - 10
13.08.2018 02:00:00 21,1 18,9 8 4 WSW 1014,0 10
13.08.2018 01:00:00 22,0 19,0 9 5 WSW - 10
13.08.2018 00:00:00 23,0 20,0 9 5 SSW - 10
12.08.2018 23:00:00 23,0 20,4 4 2 - 1014,0 10
12.08.2018 22:00:00 24,0 20,0 4 2 NNE - 10
12.08.2018 21:00:00 25,0 19,0 5 3 NNW - 10
12.08.2018 20:00:00 26,4 18,9 4 2 - 1014,0 10
12.08.2018 19:00:00 26,0 19,0 8 4 W - 10
12.08.2018 18:00:00 29,0 19,0 8 4 NE - 10
12.08.2018 17:00:00 29,5 19,1 11 6 ENE 1015,0 10
12.08.2018 16:00:00 31,0 19,0 13 7 ENE - 10
12.08.2018 15:00:00 30,0 20,0 15 8 E - 10
12.08.2018 14:00:00 29,1 20,4 16 9 ENE 1016,0 10
12.08.2018 13:00:00 30,0 20,0 11 6 E - 10
12.08.2018 12:00:00 29,0 21,0 4 2 - - 10
12.08.2018 11:00:00 28,0 20,4 4 2 - 1018,0 10
12.08.2018 10:00:00 24,0 18,0 8 4 NNW - 10
12.08.2018 09:00:00 23,0 16,0 2 1 - - 10
12.08.2018 08:00:00 21,1 15,0 5 3 WSW 1018,0 10
12.08.2018 07:00:00 21,0 14,0 9 5 SW - 10
12.08.2018 06:00:00 21,0 14,0 9 5 SSW - 10
12.08.2018 05:00:00 20,8 13,9 9 5 SW 1017,0 10
12.08.2018 04:00:00 21,0 14,0 4 2 WSW - 10
12.08.2018 03:00:00 22,0 13,0 5 3 SW - 10
12.08.2018 02:00:00 23,9 12,8 11 6 SSW 1016,0 10
12.08.2018 01:00:00 25,0 13,0 13 7 S - 10
12.08.2018 00:00:00 27,0 12,0 15 8 SSE - 10
11.08.2018 23:00:00 26,7 13,1 9 5 SSE 1016,0 10
11.08.2018 22:00:00 28,0 14,0 5 3 SW - 10
11.08.2018 21:00:00 30,0 13,0 9 5 SSW - 10
11.08.2018 20:00:00 31,1 12,8 11 6 SW 1014,0 10
11.08.2018 19:00:00 32,0 18,0 5 3 NNE - 10
11.08.2018 18:00:00 33,0 17,0 8 4 NNE - 10
11.08.2018 17:00:00 32,6 17,4 9 5 E 1015,0 10
11.08.2018 16:00:00 33,0 18,0 8 4 SSE - 10
11.08.2018 15:00:00 32,0 18,0 13 7 ENE - 10
11.08.2018 14:00:00 31,8 18,0 9 5 N 1016,0 10
11.08.2018 13:00:00 31,0 17,0 9 5 NNW - 10
11.08.2018 12:00:00 30,0 18,0 8 4 - - 10
11.08.2018 11:00:00 29,2 18,8 8 4 - 1018,0 10
11.08.2018 10:00:00 28,0 17,0 9 5 W - 10
11.08.2018 09:00:00 27,0 17,0 8 4 SW - 10
11.08.2018 08:00:00 24,6 17,5 9 5 SSW 1018,0 10
11.08.2018 07:00:00 21,0 17,0 8 4 SW - 10
11.08.2018 06:00:00 23,0 17,0 11 6 SSW - 10
11.08.2018 05:00:00 23,0 17,6 8 4 WSW 1017,0 10
11.08.2018 04:00:00 24,0 18,0 8 4 SW - 10
11.08.2018 03:00:00 24,0 18,0 9 5 SW - 10
11.08.2018 02:00:00 24,2 18,0 9 5 SSW 1018,0 10
11.08.2018 01:00:00 25,0 18,0 11 6 SSW - 10
11.08.2018 00:00:00 26,0 18,0 8 4 SW - 10
10.08.2018 23:00:00 26,5 19,2 9 5 SW 1017,0 10
10.08.2018 22:00:00 28,0 19,0 8 4 S - 10
10.08.2018 21:00:00 29,0 19,0 8 4 E - 10
10.08.2018 20:00:00 30,8 20,0 8 4 NE 1016,0 10
10.08.2018 19:00:00 32,0 19,0 9 5 N - 10
10.08.2018 18:00:00 32,0 19,0 11 6 NNE - 10
10.08.2018 17:00:00 32,1 18,6 13 7 NNE 1017,0 10
10.08.2018 16:00:00 32,0 19,0 15 8 NNE - 10
10.08.2018 15:00:00 32,0 19,0 13 7 NNE - 10
10.08.2018 14:00:00 31,4 18,8 5 3 - 1018,0 10
10.08.2018 13:00:00 31,0 19,0 8 4 ENE - 10
10.08.2018 12:00:00 29,0 20,0 5 3 - - 10
10.08.2018 11:00:00 27,8 19,8 5 3 NNW 1019,0 10
10.08.2018 10:00:00 26,0 19,0 4 2 - - 10
10.08.2018 09:00:00 25,0 21,0 2 1 - - 10
10.08.2018 08:00:00 23,3 19,8 5 3 ENE 1018,0 10
10.08.2018 07:00:00 22,0 18,0 5 3 S - 10
10.08.2018 06:00:00 20,0 19,0 2 1 - - 10
10.08.2018 05:00:00 20,8 19,1 5 3 W 1017,0 10
10.08.2018 04:00:00 21,0 19,0 9 5 W - 10
10.08.2018 03:00:00 21,0 19,0 4 2 - - 10
10.08.2018 02:00:00 21,6 19,3 4 2 - 1017,0 10
10.08.2018 01:00:00 21,0 20,0 8 4 W - 10
10.08.2018 00:00:00 21,0 20,0 8 4 N - 10
09.08.2018 23:00:00 21,8 20,1 8 4 NW 1017,0 10
09.08.2018 22:00:00 23,0 20,0 13 7 N - 10
09.08.2018 21:00:00 27,0 21,0 9 5 NW - 10
09.08.2018 20:00:00 27,2 20,1 8 4 ESE 1014,0 10
09.08.2018 19:00:00 28,0 21,0 13 7 NE - 10
09.08.2018 18:00:00 32,0 20,0 11 6 E - 10
09.08.2018 17:00:00 34,7 17,7 8 4 N 1013,0 10
09.08.2018 16:00:00 34,0 19,0 5 3 - - 10
09.08.2018 15:00:00 33,0 18,0 5 3 - - 10
09.08.2018 14:00:00 33,0 19,1 5 3 - 1015,0 10
09.08.2018 13:00:00 31,0 20,0 8 4 NNE - 10
09.08.2018 12:00:00 - - - - - - -
09.08.2018 11:00:00 28,5 20,0 11 6 NW 1016,0 10
09.08.2018 10:00:00 27,0 19,0 11 6 WNW - 10
09.08.2018 09:00:00 26,0 19,0 9 5 W - 10
09.08.2018 08:00:00 23,8 18,3 11 6 SW 1016,0 10
09.08.2018 07:00:00 22,0 18,0 9 5 SSW - 10
09.08.2018 06:00:00 22,0 18,0 9 5 SSW - 10
09.08.2018 05:00:00 21,8 17,7 8 4 SW 1015,0 10
09.08.2018 04:00:00 23,0 19,0 11 6 SW - 10
09.08.2018 03:00:00 23,0 19,0 11 6 SSW - 10
09.08.2018 02:00:00 23,3 19,2 11 6 SSW 1015,0 10
09.08.2018 01:00:00 24,0 20,0 5 3 WSW - 10
09.08.2018 00:00:00 24,0 20,0 9 5 WSW - 10
08.08.2018 23:00:00 25,8 19,4 2 1 - 1014,0 10

tt = Température de l'air
td = dewpoint
ff = Vitesse du vent
dd = Direction du vent
ppp = reduced air pressure
vv = visibility

stations d'obs. à proximité